RH
53 53 58 65 69 75 82 87 91 89 97 93 99 99 91 98 99 95 64 42 33 28 22 16 13 12 12
59 61 63 68 74 86 89 90 93 91 98 99 100 100 100 100 99 89 82 60 26 18 14 13 13 12 11
72 73 74 76 79 91 99 99 100 100 100 100 100 100 100 97 90 93 76 26 16 14 14 14 12 12 11
79 81 86 87 91 96 100 100 100 99 99 100 100 99 98 98 93 51 20 16 15 16 14 13 13 13 13
81 84 88 90 89 90 100 100 100 100 99 100 100 95 85 52 29 19 16 15 16 16 14 14 15 15 15
91 94 96 88 86 99 100 100 100 100 100 100 98 72 38 25 18 15 15 20 20 16 16 16 16 16 16
100 98 96 92 100 100 100 100 98 100 99 92 48 24 20 17 16 16 18 29 20 18 19 19 18 18 17
100 100 100 100 100 100 100 100 100 99 85 39 18 19 18 18 18 19 25 22 20 20 21 20 20 20 18
100 100 100 100 100 98 98 100 96 79 23 17 18 18 19 18 19 23 22 22 23 23 23 22 22 21 19
99 100 100 100 100 100 99 96 44 17 20 20 21 21 20 21 21 24 24 25 25 25 25 25 23 20 18
100 98 98 100 98 92 46 18 18 20 22 22 23 25 26 27 28 28 28 27 27 27 27 24 22 22 22
99 100 100 97 40 19 19 21 23 24 24 26 27 29 30 30 30 30 29 28 28 32 29 28 25 25 26
99 93 36 20 21 23 24 25 26 28 29 30 31 32 31 31 33 32 34 33 38 38 37 36 33 28 30
60 20 20 22 25 26 27 29 31 31 32 34 34 34 32 32 29 34 41 46 47 46 46 45 40 34 39
20 21 24 26 28 30 32 33 34 36 36 36 34 32 30 29 28 35 38 42 50 49 48 52 49 41 46
23 27 28 31 34 35 34 35 38 38 36 32 26 26 26 26 32 48 54 55 57 55 58 57 52 42 48
28 32 36 38 38 36 37 40 39 35 30 30 31 30 32 42 30 46 55 54 59 58 55 60 61 48 50
Wind_Speed
22 19 18 17 18 19 21 24 25 26 27 29 28 33 30 32 31 32 29 30 30 32 31 31 31 31 32
23 22 20 17 20 21 25 27 28 28 28 30 34 33 32 31 32 28 29 30 29 29 29 28 29 30 31
27 24 23 22 22 24 25 27 29 30 33 32 32 30 28 29 25 27 26 23 26 26 27 28 28 30 32
27 27 27 26 27 28 28 28 30 32 29 31 24 26 24 24 25 24 19 23 24 25 25 28 30 31 33
27 29 30 30 31 34 34 34 32 26 24 21 22 21 20 20 18 19 21 22 24 24 27 29 31 32 33
29 32 32 32 35 39 37 32 23 23 21 20 18 17 16 15 17 20 21 22 21 25 29 29 32 33 34
33 32 35 36 41 36 28 23 21 19 16 15 13 12 11 14 18 20 19 20 24 28 29 31 34 34 34
36 37 38 36 28 23 21 17 15 14 11 9 8 8 11 14 16 16 15 20 28 28 30 32 33 34 36
34 36 30 25 20 15 15 13 11 8 8 7 6 8 11 11 12 11 19 25 26 28 29 30 32 36 38
19 14 13 13 12 11 11 9 4 6 5 5 6 8 5 8 8 18 20 23 27 29 30 29 33 38 40
14 13 10 9 7 6 4 6 5 4 4 6 8 10 10 13 15 19 22 27 28 29 29 33 32 34 38
13 9 9 5 6 8 6 4 1 1 4 7 10 13 16 21 23 25 26 25 28 28 35 34 32 31 30
10 8 10 11 9 6 4 1 3 5 7 9 12 15 18 20 24 26 30 29 19 32 34 34 35 35 39
13 15 14 10 7 4 3 2 5 8 10 12 15 16 17 19 22 24 22 24 30 31 34 36 36 33 35
17 15 12 10 7 4 1 3 5 7 9 11 15 18 19 20 20 20 23 25 28 32 35 38 39 38 39
17 14 11 9 6 3 1 4 6 10 13 17 18 19 19 17 19 22 25 29 31 32 33 39 44 41 39
15 12 9 6 3 1 2 5 8 11 14 17 20 22 24 24 17 19 28 29 31 33 35 35 42 43 41
Wind_Direction
257 253 251 246 249 254 258 263 270 275 278 291 287 289 296 289 295 297 296 303 309 310 311 312 313 314 313
265 266 264 261 260 257 259 267 272 276 278 284 279 274 287 285 292 294 301 304 308 308 309 311 311 312 313
267 272 271 265 264 265 265 268 269 268 275 273 277 274 284 293 290 294 300 305 304 307 309 314 317 318 320
265 271 273 275 275 273 272 272 272 267 266 263 272 284 291 290 294 297 304 302 309 310 318 322 322 322 322
258 263 268 271 275 276 270 263 259 247 262 270 279 284 290 293 297 296 301 307 309 317 322 323 321 320 320
260 262 264 270 272 271 261 250 240 248 261 268 280 288 289 297 299 300 306 305 313 322 320 321 317 318 318
262 267 269 270 269 260 247 239 246 256 267 278 284 286 290 298 299 304 305 308 318 321 320 319 316 316 318
258 258 264 263 247 239 243 242 243 257 276 281 266 272 292 298 298 305 305 312 317 317 316 316 318 318 318
254 260 254 243 233 227 235 239 259 276 252 258 265 292 304 298 299 302 311 312 313 317 318 320 319 319 320
242 230 226 226 238 243 253 268 253 236 240 273 301 318 307 297 298 304 308 310 319 322 321 322 325 323 323
200 204 216 231 238 245 209 202 197 223 281 315 322 322 319 305 308 315 321 324 324 323 321 328 331 329 326
204 209 228 202 179 180 172 172 189 343 339 333 330 329 330 326 327 326 326 329 329 326 328 329 334 332 328
205 191 165 160 158 148 137 111 10 356 343 333 331 333 331 330 326 333 329 336 331 330 331 337 341 339 334
171 162 156 149 143 123 78 16 347 345 338 334 331 330 330 331 331 328 330 333 332 338 337 338 342 341 340
156 152 148 144 137 127 85 353 341 332 327 328 332 334 336 336 336 330 331 333 337 338 336 335 341 346 341
152 152 149 144 144 130 27 338 329 334 334 333 333 335 338 344 346 342 341 339 338 338 337 335 335 343 338
149 148 150 146 138 105 346 345 342 341 341 344 341 343 345 348 360 355 340 341 337 336 337 337 335 336 336